PNN809 OBBI-LHBP

Flight info

Callsign PNN809
Flight time 4h 45m
Altitude FL380
Route NARMI J735 KFA H741 JBL L768 FIRAS R655 KTN R785 NIKAS L619 VESAR UN135 IMR UN128 RUGAS DCT RAXAD DCT PARAK DCT EBAMO
Aircraft A346/H-VGDW/C

Departure

Time 2026-05-07 12:14
Airport Bahrain International Airport (OBBI)

Arrival

Time 2026-05-07 16:59
Airport Budapest Liszt Ferenc International Airport (LHBP)
Time Latitude Longitude Altitude Speed Heading
2026-05-07 11:48 26.27049 50.62674 5 ft 0 kts 213°
2026-05-07 12:03 26.27059 50.62681 5 ft 2 kts 213°
2026-05-07 12:03 26.27071 50.62690 5 ft 2 kts 213°
2026-05-07 12:04 26.27084 50.62699 5 ft 2 kts 213°
2026-05-07 12:04 26.27097 50.62707 5 ft 2 kts 195°
2026-05-07 12:04 26.27112 50.62709 5 ft 2 kts 173°
2026-05-07 12:04 26.27126 50.62704 5 ft 2 kts 154°
2026-05-07 12:05 26.27139 50.62695 5 ft 2 kts 134°
2026-05-07 12:05 26.27147 50.62682 5 ft 2 kts 117°
2026-05-07 12:05 26.27151 50.62674 5 ft 1 kts 122°
2026-05-07 12:05 26.27151 50.62673 5 ft 0 kts 122°
2026-05-07 12:07 26.27144 50.62686 4 ft 4 kts 123°
2026-05-07 12:07 26.27119 50.62730 5 ft 9 kts 123°
2026-05-07 12:07 26.27076 50.62804 4 ft 13 kts 122°
2026-05-07 12:08 26.27070 50.62894 4 ft 10 kts 49°
2026-05-07 12:08 26.27105 50.62931 4 ft 6 kts 64°
2026-05-07 12:08 26.27097 50.62990 4 ft 10 kts 117°
2026-05-07 12:08 26.27053 50.63073 5 ft 14 kts 122°
2026-05-07 12:09 26.26994 50.63176 4 ft 17 kts 123°
2026-05-07 12:09 26.26924 50.63295 4 ft 20 kts 122°
2026-05-07 12:09 26.26846 50.63430 5 ft 22 kts 123°
2026-05-07 12:09 26.26762 50.63579 5 ft 24 kts 123°
2026-05-07 12:10 26.26668 50.63741 5 ft 26 kts 122°
2026-05-07 12:10 26.26567 50.63917 5 ft 28 kts 122°
2026-05-07 12:10 26.26457 50.64107 4 ft 30 kts 122°
2026-05-07 12:10 26.26344 50.64304 5 ft 31 kts 123°
2026-05-07 12:11 26.26231 50.64500 4 ft 30 kts 123°
2026-05-07 12:11 26.26118 50.64699 4 ft 31 kts 122°
2026-05-07 12:11 26.26036 50.64848 5 ft 9 kts 109°
2026-05-07 12:11 26.26036 50.64931 4 ft 12 kts 70°
2026-05-07 12:12 26.26095 50.64997 4 ft 8 kts 30°
2026-05-07 12:12 26.26127 50.65008 4 ft 4 kts 349°
2026-05-07 12:12 26.26159 50.64976 5 ft 8 kts 303°
2026-05-07 12:12 26.26163 50.64968 5 ft 1 kts 302°
2026-05-07 12:13 26.26185 50.64929 5 ft 22 kts 303°
2026-05-07 12:13 26.26402 50.64554 5 ft 92 kts 303°
2026-05-07 12:13 26.26854 50.63763 5 ft 149 kts 303°
2026-05-07 12:13 26.27471 50.62688 286 ft 171 kts 303°
2026-05-07 12:14 26.28104 50.61558 816 ft 175 kts 303°
2026-05-07 12:14 26.28736 50.60395 1369 ft 180 kts 303°
2026-05-07 12:14 26.29380 50.59204 1903 ft 182 kts 303°
2026-05-07 12:14 26.30036 50.57983 2241 ft 188 kts 302°
2026-05-07 12:15 26.30501 50.56587 2457 ft 203 kts 275°
2026-05-07 12:15 26.30478 50.54969 2684 ft 216 kts 271°
2026-05-07 12:15 26.30455 50.53253 2909 ft 228 kts 271°
2026-05-07 12:15 26.30431 50.51404 3083 ft 247 kts 271°
2026-05-07 12:16 26.30401 50.49444 3348 ft 262 kts 271°
2026-05-07 12:16 26.30368 50.47385 3728 ft 271 kts 270°
2026-05-07 12:16 26.30331 50.45287 4274 ft 273 kts 270°
2026-05-07 12:16 26.30291 50.43174 4823 ft 276 kts 270°
2026-05-07 12:17 26.30251 50.41037 5346 ft 280 kts 270°
2026-05-07 12:17 26.30210 50.38872 5862 ft 283 kts 270°
2026-05-07 12:17 26.30170 50.36663 6368 ft 287 kts 270°
2026-05-07 12:17 26.30136 50.34633 6814 ft 289 kts 272°
2026-05-07 12:18 26.30346 50.32413 7285 ft 292 kts 284°
2026-05-07 12:18 26.30948 50.30264 7764 ft 294 kts 292°
2026-05-07 12:18 26.31708 50.28152 8234 ft 297 kts 293°
2026-05-07 12:18 26.32495 50.26025 8700 ft 300 kts 294°
2026-05-07 12:19 26.33286 50.23879 9172 ft 302 kts 293°
2026-05-07 12:19 26.34083 50.21698 9638 ft 304 kts 293°
2026-05-07 12:19 26.34875 50.19516 10089 ft 307 kts 293°
2026-05-07 12:19 26.35679 50.17293 10382 ft 316 kts 292°
2026-05-07 12:20 26.36513 50.14985 10614 ft 328 kts 292°
2026-05-07 12:20 26.37378 50.12585 10853 ft 342 kts 292°
2026-05-07 12:20 26.38276 50.10089 11100 ft 355 kts 292°
2026-05-07 12:20 26.39208 50.07494 11341 ft 369 kts 292°
2026-05-07 12:21 26.40182 50.04779 11582 ft 383 kts 292°
2026-05-07 12:21 26.41181 50.01989 11909 ft 393 kts 291°
2026-05-07 12:21 26.42197 49.99151 12457 ft 397 kts 291°
2026-05-07 12:21 26.43217 49.96296 13046 ft 399 kts 291°
2026-05-07 12:22 26.44242 49.93426 13618 ft 402 kts 291°
2026-05-07 12:22 26.45271 49.90539 14174 ft 404 kts 291°
2026-05-07 12:22 26.46306 49.87633 14719 ft 406 kts 291°
2026-05-07 12:22 26.47357 49.84685 15263 ft 409 kts 291°
2026-05-07 12:23 26.48414 49.81737 15768 ft 413 kts 292°
2026-05-07 12:23 26.49826 49.78937 16237 ft 420 kts 306°
2026-05-07 12:23 26.51807 49.76548 16746 ft 425 kts 318°
2026-05-07 12:23 26.54220 49.74635 17244 ft 429 kts 327°
2026-05-07 12:24 26.56757 49.72860 17747 ft 433 kts 327°
2026-05-07 12:24 26.59321 49.71083 18253 ft 437 kts 327°
2026-05-07 12:24 26.61923 49.69268 18764 ft 440 kts 327°
2026-05-07 12:24 26.64518 49.67440 19243 ft 444 kts 326°
2026-05-07 12:25 26.67131 49.65587 19759 ft 447 kts 326°
2026-05-07 12:25 26.69751 49.63722 20280 ft 449 kts 326°
2026-05-07 12:25 26.72385 49.61844 20786 ft 451 kts 326°
2026-05-07 12:25 26.75037 49.59955 21280 ft 453 kts 326°
2026-05-07 12:26 26.77693 49.58060 21765 ft 455 kts 325°
2026-05-07 12:26 26.80378 49.56135 22245 ft 457 kts 325°
2026-05-07 12:26 26.83056 49.54216 22716 ft 459 kts 325°
2026-05-07 12:26 26.85752 49.52294 23177 ft 461 kts 325°
2026-05-07 12:27 26.88455 49.50368 23628 ft 463 kts 325°
2026-05-07 12:27 26.91171 49.48428 24068 ft 465 kts 325°
2026-05-07 12:27 26.93899 49.46477 24504 ft 467 kts 324°
2026-05-07 12:27 26.96635 49.44522 24933 ft 469 kts 324°
2026-05-07 12:28 26.99279 49.42364 25333 ft 468 kts 316°
2026-05-07 12:28 27.01563 49.39806 25744 ft 466 kts 307°
2026-05-07 12:28 27.03471 49.36896 26157 ft 464 kts 298°
2026-05-07 12:28 27.05084 49.33788 26571 ft 464 kts 296°
2026-05-07 12:29 27.06652 49.30644 26990 ft 465 kts 295°
2026-05-07 12:29 27.08222 49.27477 27398 ft 467 kts 295°
2026-05-07 12:29 27.09800 49.24302 27802 ft 469 kts 295°
2026-05-07 12:29 27.11398 49.21095 28210 ft 470 kts 295°
2026-05-07 12:30 27.12989 49.17915 28709 ft 469 kts 294°
2026-05-07 12:30 27.14572 49.14746 29300 ft 465 kts 294°
2026-05-07 12:30 27.16142 49.11606 29878 ft 462 kts 294°
2026-05-07 12:30 27.17699 49.08489 30441 ft 459 kts 294°
2026-05-07 12:31 27.19249 49.05382 31004 ft 456 kts 293°
2026-05-07 12:31 27.20787 49.02303 31571 ft 453 kts 293°
2026-05-07 12:31 27.22326 48.99224 32142 ft 450 kts 293°
2026-05-07 12:31 27.23850 48.96189 32714 ft 447 kts 293°
2026-05-07 12:32 27.25364 48.93170 33279 ft 444 kts 293°
2026-05-07 12:32 27.26863 48.90174 33844 ft 441 kts 292°
2026-05-07 12:32 27.28394 48.87107 34420 ft 438 kts 292°
2026-05-07 12:32 27.29878 48.84129 34966 ft 434 kts 292°
2026-05-07 12:33 27.32819 48.78212 35947 ft 430 kts 292°
2026-05-07 12:33 27.34274 48.75280 36364 ft 429 kts 292°
2026-05-07 12:33 27.35719 48.72364 36699 ft 429 kts 292°
2026-05-07 12:34 27.37166 48.69443 37001 ft 430 kts 292°
2026-05-07 12:34 27.38617 48.66511 37299 ft 430 kts 292°
2026-05-07 12:34 27.40066 48.63582 37580 ft 431 kts 292°
2026-05-07 12:34 27.41516 48.60651 37803 ft 431 kts 291°
2026-05-07 12:35 27.42985 48.57678 37907 ft 432 kts 291°
2026-05-07 12:35 27.44438 48.54737 37944 ft 431 kts 291°
2026-05-07 12:35 27.47332 48.48875 37928 ft 428 kts 291°
2026-05-07 12:36 27.50215 48.43026 37912 ft 425 kts 291°
2026-05-07 12:36 27.53069 48.37215 37899 ft 423 kts 291°
2026-05-07 12:37 27.55906 48.31424 37899 ft 425 kts 290°
2026-05-07 12:37 27.58794 48.25539 37906 ft 434 kts 290°
2026-05-07 12:38 27.61738 48.19567 37915 ft 438 kts 290°
2026-05-07 12:38 27.64691 48.13556 37921 ft 438 kts 290°
2026-05-07 12:39 27.67622 48.07564 37924 ft 437 kts 290°
2026-05-07 12:39 27.70556 48.01570 37925 ft 437 kts 290°
2026-05-07 12:40 27.73501 47.95547 37930 ft 437 kts 290°
2026-05-07 12:40 27.76427 47.89532 37937 ft 437 kts 290°
2026-05-07 12:41 27.79348 47.83506 37948 ft 436 kts 290°
2026-05-07 12:41 27.82244 47.77504 37958 ft 435 kts 289°
2026-05-07 12:42 27.84788 47.71365 37964 ft 429 kts 284°
2026-05-07 12:42 27.86849 47.65108 37968 ft 426 kts 282°
2026-05-07 12:43 27.88816 47.58806 37971 ft 426 kts 282°
2026-05-07 12:43 27.90778 47.52480 37973 ft 426 kts 282°
2026-05-07 12:44 27.92728 47.46173 37974 ft 427 kts 282°
2026-05-07 12:44 27.94677 47.39861 37978 ft 427 kts 282°
2026-05-07 12:45 27.96626 47.33536 37990 ft 427 kts 281°
2026-05-07 12:45 27.98592 47.27142 37997 ft 427 kts 281°
2026-05-07 12:46 28.00531 47.20825 37995 ft 427 kts 281°
2026-05-07 12:46 28.02467 47.14503 37991 ft 427 kts 281°
2026-05-07 12:47 28.04407 47.08156 37974 ft 426 kts 281°
2026-05-07 12:47 28.06335 47.01828 37951 ft 426 kts 281°
2026-05-07 12:48 28.08254 46.95503 37945 ft 427 kts 281°
2026-05-07 12:48 28.10190 46.89128 37947 ft 428 kts 281°
2026-05-07 12:49 28.12253 46.82786 37952 ft 430 kts 283°
2026-05-07 12:49 28.14397 46.76451 37958 ft 430 kts 282°
2026-05-07 12:50 28.16511 46.70146 37962 ft 430 kts 282°
2026-05-07 12:50 28.18619 46.63818 37965 ft 430 kts 282°
2026-05-07 12:51 28.20720 46.57491 37969 ft 430 kts 282°
2026-05-07 12:51 28.22813 46.51171 37972 ft 430 kts 282°
2026-05-07 12:52 28.24909 46.44828 37974 ft 430 kts 282°
2026-05-07 12:52 28.27009 46.38457 37976 ft 430 kts 282°
2026-05-07 12:53 28.29097 46.32109 37980 ft 430 kts 281°
2026-05-07 12:53 28.31177 46.25769 37980 ft 430 kts 281°
2026-05-07 12:54 28.33257 46.19409 37980 ft 429 kts 281°
2026-05-07 12:54 28.35332 46.13071 37980 ft 430 kts 282°
2026-05-07 12:55 28.37624 46.06801 37980 ft 433 kts 284°
2026-05-07 12:55 28.39972 46.00522 37981 ft 433 kts 284°
2026-05-07 12:56 28.42315 45.94229 37982 ft 433 kts 284°
2026-05-07 12:56 28.44648 45.87950 37982 ft 432 kts 284°
2026-05-07 12:57 28.46979 45.81663 37984 ft 432 kts 284°
2026-05-07 12:57 28.49311 45.75360 37987 ft 432 kts 284°
2026-05-07 12:58 28.51639 45.69056 37988 ft 433 kts 284°
2026-05-07 12:58 28.53960 45.62760 37987 ft 433 kts 284°
2026-05-07 12:59 28.56285 45.56439 37986 ft 433 kts 284°
2026-05-07 12:59 28.58609 45.50110 37984 ft 433 kts 284°
2026-05-07 13:00 28.60925 45.43795 37984 ft 433 kts 284°
2026-05-07 13:00 28.63232 45.37493 37985 ft 434 kts 284°
2026-05-07 13:01 28.65551 45.31145 37984 ft 434 kts 283°
2026-05-07 13:01 28.67853 45.24834 37980 ft 434 kts 283°
2026-05-07 13:02 28.70159 45.18498 37980 ft 434 kts 283°
2026-05-07 13:02 28.72459 45.12167 37982 ft 434 kts 283°
2026-05-07 13:03 28.74762 45.05817 37983 ft 434 kts 283°
2026-05-07 13:03 28.77055 44.99478 37985 ft 434 kts 283°
2026-05-07 13:04 28.79342 44.93136 37985 ft 434 kts 283°
2026-05-07 13:04 28.81634 44.86767 37986 ft 435 kts 283°
2026-05-07 13:05 28.83958 44.80423 37985 ft 437 kts 285°
2026-05-07 13:05 28.86721 44.74205 37986 ft 443 kts 289°
2026-05-07 13:06 28.89998 44.68220 37987 ft 451 kts 294°
2026-05-07 13:06 28.93596 44.62357 37989 ft 452 kts 295°
2026-05-07 13:07 28.97201 44.56511 37990 ft 452 kts 295°
2026-05-07 13:07 29.00822 44.50629 37990 ft 453 kts 295°
2026-05-07 13:08 29.04465 44.44704 37989 ft 453 kts 295°
2026-05-07 13:08 29.08074 44.38824 37989 ft 453 kts 295°
2026-05-07 13:09 29.11681 44.32939 37992 ft 453 kts 294°
2026-05-07 13:09 29.15284 44.27052 37996 ft 452 kts 294°
2026-05-07 13:10 29.18892 44.21151 38000 ft 452 kts 294°
2026-05-07 13:10 29.22489 44.15257 38004 ft 452 kts 294°
2026-05-07 13:11 29.26083 44.09359 38006 ft 453 kts 294°
2026-05-07 13:11 29.29690 44.03432 38007 ft 453 kts 294°
2026-05-07 13:12 29.33277 43.97529 38009 ft 453 kts 294°
2026-05-07 13:12 29.36874 43.91601 38019 ft 454 kts 294°
2026-05-07 13:13 29.40484 43.85640 38024 ft 455 kts 294°
2026-05-07 13:13 29.44108 43.79650 38015 ft 456 kts 294°
2026-05-07 13:14 29.47712 43.73682 38012 ft 456 kts 294°
2026-05-07 13:14 29.51319 43.67696 38012 ft 456 kts 294°
2026-05-07 13:15 29.54928 43.61691 38012 ft 456 kts 294°
2026-05-07 13:15 29.58531 43.55685 38013 ft 456 kts 294°
2026-05-07 13:16 29.62131 43.49686 38014 ft 456 kts 294°
2026-05-07 13:16 29.65603 43.43610 38015 ft 454 kts 292°
2026-05-07 13:17 29.69023 43.37505 38015 ft 454 kts 292°
2026-05-07 13:17 29.72423 43.31430 38017 ft 453 kts 292°
2026-05-07 13:18 29.75818 43.25361 38015 ft 453 kts 292°
2026-05-07 13:18 29.79234 43.19254 38014 ft 453 kts 292°
2026-05-07 13:19 29.82629 43.13172 38013 ft 454 kts 292°
2026-05-07 13:19 29.86030 43.07072 38013 ft 455 kts 292°
2026-05-07 13:20 29.89426 43.00970 38013 ft 455 kts 292°
2026-05-07 13:20 29.92840 42.94829 38014 ft 455 kts 292°
2026-05-07 13:21 29.96246 42.88689 38014 ft 455 kts 292°
2026-05-07 13:21 29.99651 42.82542 38014 ft 456 kts 292°
2026-05-07 13:22 30.03062 42.76374 38015 ft 456 kts 292°
2026-05-07 13:22 30.06473 42.70200 38027 ft 457 kts 292°
2026-05-07 13:23 30.09877 42.64027 38034 ft 458 kts 292°
2026-05-07 13:23 30.13295 42.57820 38021 ft 459 kts 292°
2026-05-07 13:24 30.16720 42.51590 38019 ft 460 kts 292°
2026-05-07 13:24 30.20132 42.45374 38021 ft 460 kts 292°
2026-05-07 13:25 30.23546 42.39145 38023 ft 460 kts 292°
2026-05-07 13:25 30.26967 42.32892 38027 ft 460 kts 292°
2026-05-07 13:26 30.30377 42.26651 38027 ft 460 kts 292°
2026-05-07 13:26 30.33805 42.20366 38022 ft 461 kts 292°
2026-05-07 13:27 30.37221 42.14093 38012 ft 460 kts 292°
2026-05-07 13:27 30.40637 42.07810 38003 ft 460 kts 292°
2026-05-07 13:28 30.44037 42.01547 38001 ft 461 kts 292°
2026-05-07 13:28 30.47429 41.95287 38002 ft 461 kts 292°
2026-05-07 13:29 30.50833 41.88996 38004 ft 461 kts 292°
2026-05-07 13:29 30.54224 41.82718 38010 ft 461 kts 292°
2026-05-07 13:30 30.57617 41.76425 38014 ft 461 kts 292°
2026-05-07 13:30 30.61014 41.70116 38016 ft 462 kts 292°
2026-05-07 13:31 30.64415 41.63790 38019 ft 463 kts 292°
2026-05-07 13:31 30.67819 41.57447 38021 ft 463 kts 292°
2026-05-07 13:32 30.71215 41.51109 38024 ft 464 kts 292°
2026-05-07 13:32 30.74622 41.44736 38026 ft 464 kts 292°
2026-05-07 13:33 30.78012 41.38387 38028 ft 464 kts 292°
2026-05-07 13:33 30.81394 41.32036 38033 ft 464 kts 292°
2026-05-07 13:34 30.86464 41.22488 38036 ft 463 kts 292°
2026-05-07 13:35 30.89855 41.16094 38038 ft 464 kts 292°
2026-05-07 13:35 30.93017 41.09590 38041 ft 461 kts 289°
2026-05-07 13:36 30.96049 41.03054 38043 ft 461 kts 289°
2026-05-07 13:36 30.99083 40.96479 38046 ft 461 kts 289°
2026-05-07 13:37 31.02104 40.89918 38051 ft 462 kts 289°
2026-05-07 13:37 31.05124 40.83348 38056 ft 462 kts 289°
2026-05-07 13:38 31.08184 40.76682 38060 ft 462 kts 289°
2026-05-07 13:38 31.11212 40.70071 38062 ft 463 kts 289°
2026-05-07 13:39 31.14228 40.63478 38068 ft 463 kts 289°
2026-05-07 13:39 31.17249 40.56860 38073 ft 463 kts 289°
2026-05-07 13:40 31.20272 40.50226 38077 ft 463 kts 289°
2026-05-07 13:40 31.23304 40.43556 38081 ft 463 kts 289°
2026-05-07 13:41 31.26314 40.36925 38084 ft 463 kts 289°
2026-05-07 13:41 31.29326 40.30279 38088 ft 462 kts 289°
2026-05-07 13:42 31.32327 40.23647 38090 ft 462 kts 289°
2026-05-07 13:42 31.35323 40.17014 38090 ft 463 kts 289°
2026-05-07 13:43 31.38322 40.10362 38091 ft 463 kts 289°
2026-05-07 13:43 31.41333 40.03671 38091 ft 462 kts 289°
2026-05-07 13:44 31.44316 39.97027 38090 ft 462 kts 289°
2026-05-07 13:44 31.47298 39.90372 38086 ft 463 kts 289°
2026-05-07 13:45 31.50286 39.83692 38072 ft 463 kts 289°
2026-05-07 13:45 31.53270 39.77005 38057 ft 464 kts 289°
2026-05-07 13:46 31.56257 39.70307 38045 ft 464 kts 289°
2026-05-07 13:46 31.59236 39.63613 38035 ft 464 kts 289°
2026-05-07 13:47 31.62223 39.56886 38034 ft 464 kts 289°
2026-05-07 13:47 31.65189 39.50192 38038 ft 464 kts 289°
2026-05-07 13:48 31.68156 39.43480 38040 ft 465 kts 289°
2026-05-07 13:48 31.71132 39.36727 38041 ft 465 kts 290°
2026-05-07 13:49 31.74091 39.30008 38043 ft 465 kts 289°
2026-05-07 13:49 31.77411 39.23476 38042 ft 474 kts 297°
2026-05-07 13:50 31.81776 39.17573 38044 ft 486 kts 308°
2026-05-07 13:50 31.87130 39.12560 38046 ft 499 kts 319°
2026-05-07 13:51 31.93256 39.08590 38049 ft 507 kts 325°
2026-05-07 13:51 31.99569 39.04910 38050 ft 507 kts 326°
2026-05-07 13:52 32.05901 39.01207 38049 ft 507 kts 326°
2026-05-07 13:52 32.12196 38.97513 38053 ft 507 kts 326°
2026-05-07 13:53 32.18482 38.93804 38060 ft 506 kts 326°
2026-05-07 13:53 32.24755 38.90093 38057 ft 505 kts 326°
2026-05-07 13:54 32.31072 38.86350 38052 ft 505 kts 326°
2026-05-07 13:54 32.37346 38.82624 38050 ft 505 kts 326°
2026-05-07 13:55 32.43596 38.78906 38050 ft 504 kts 326°
2026-05-07 13:55 32.49878 38.75158 38051 ft 504 kts 326°
2026-05-07 13:56 32.56110 38.71433 38062 ft 503 kts 326°
2026-05-07 13:56 32.62340 38.67717 38073 ft 503 kts 326°
2026-05-07 13:57 32.68610 38.63987 38073 ft 503 kts 326°
2026-05-07 13:57 32.74888 38.60234 38069 ft 502 kts 326°
2026-05-07 13:58 32.81121 38.56495 38068 ft 502 kts 326°
2026-05-07 13:58 32.87358 38.52742 38070 ft 501 kts 326°
2026-05-07 13:59 32.93595 38.48979 38073 ft 501 kts 326°
2026-05-07 13:59 32.99805 38.45239 38075 ft 500 kts 327°
2026-05-07 14:00 33.06002 38.41503 38077 ft 500 kts 327°
2026-05-07 14:00 33.12173 38.37766 38076 ft 499 kts 327°
2026-05-07 14:01 33.18367 38.34021 38079 ft 498 kts 326°
2026-05-07 14:01 33.24528 38.30294 38081 ft 496 kts 326°
2026-05-07 14:02 33.30668 38.26557 38079 ft 496 kts 326°
2026-05-07 14:02 33.36816 38.22795 38080 ft 495 kts 326°
2026-05-07 14:03 33.42919 38.19051 38082 ft 494 kts 326°
2026-05-07 14:03 33.49025 38.15329 38086 ft 493 kts 327°
2026-05-07 14:04 33.55130 38.11640 38096 ft 492 kts 327°
2026-05-07 14:04 33.61260 38.07916 38111 ft 491 kts 327°
2026-05-07 14:05 33.67352 38.04197 38133 ft 490 kts 327°
2026-05-07 14:05 33.73421 38.00482 38154 ft 490 kts 327°
2026-05-07 14:06 33.79431 37.96668 38163 ft 486 kts 323°
2026-05-07 14:06 33.84868 37.92030 38167 ft 477 kts 314°
2026-05-07 14:07 33.89547 37.86522 38170 ft 470 kts 305°
2026-05-07 14:07 33.93424 37.80288 38175 ft 463 kts 298°
2026-05-07 14:08 33.96873 37.73710 38183 ft 463 kts 297°
2026-05-07 14:08 34.00278 37.67149 38194 ft 463 kts 297°
2026-05-07 14:09 34.03681 37.60601 38203 ft 463 kts 297°
2026-05-07 14:09 34.07096 37.54028 38204 ft 463 kts 297°
2026-05-07 14:10 34.10505 37.47455 38200 ft 463 kts 297°
2026-05-07 14:10 34.13915 37.40859 38195 ft 463 kts 297°
2026-05-07 14:11 34.17326 37.34259 38189 ft 462 kts 297°
2026-05-07 14:11 34.20965 37.27802 38183 ft 465 kts 302°
2026-05-07 14:12 34.25110 37.21778 38178 ft 469 kts 307°
2026-05-07 14:12 34.29595 37.16054 38179 ft 470 kts 308°
2026-05-07 14:13 34.34124 37.10324 38171 ft 469 kts 308°
2026-05-07 14:13 34.38619 37.04626 38162 ft 469 kts 308°
2026-05-07 14:14 34.43119 36.98906 38160 ft 468 kts 308°
2026-05-07 14:14 34.47612 36.93181 38155 ft 468 kts 309°
2026-05-07 14:15 34.52093 36.87461 38146 ft 468 kts 309°
2026-05-07 14:15 34.56546 36.81763 38133 ft 467 kts 309°
2026-05-07 14:16 34.61017 36.76029 38116 ft 467 kts 309°
2026-05-07 14:16 34.65501 36.70265 38101 ft 467 kts 309°
2026-05-07 14:17 34.69957 36.64539 38095 ft 467 kts 309°
2026-05-07 14:17 34.74422 36.58819 38089 ft 467 kts 309°
2026-05-07 14:18 34.78881 36.53087 38067 ft 466 kts 309°
2026-05-07 14:18 34.83340 36.47332 38055 ft 466 kts 309°
2026-05-07 14:19 34.87782 36.41587 38074 ft 466 kts 309°
2026-05-07 14:19 34.92220 36.35833 38048 ft 466 kts 309°
2026-05-07 14:20 34.96688 36.30033 37914 ft 465 kts 309°
2026-05-07 14:20 34.98889 36.27171 37774 ft 464 kts 309°
2026-05-07 14:20 35.01103 36.24290 37571 ft 463 kts 309°
2026-05-07 14:20 35.03296 36.21432 37467 ft 463 kts 309°
2026-05-07 14:21 35.05490 36.18567 37487 ft 463 kts 309°
2026-05-07 14:21 35.09897 36.12802 37689 ft 465 kts 309°
2026-05-07 14:21 35.12111 36.09904 37814 ft 465 kts 309°
2026-05-07 14:22 35.14316 36.07019 37932 ft 465 kts 309°
2026-05-07 14:22 35.18087 36.00731 38090 ft 457 kts 295°
2026-05-07 14:23 35.20341 35.93567 38121 ft 451 kts 281°
2026-05-07 14:23 35.21037 35.85955 38126 ft 449 kts 269°
2026-05-07 14:24 35.20870 35.78308 38126 ft 450 kts 270°
2026-05-07 14:24 35.21516 35.70716 38115 ft 451 kts 280°
2026-05-07 14:25 35.23277 35.63329 38111 ft 454 kts 289°
2026-05-07 14:25 35.26016 35.56336 38112 ft 456 kts 295°
2026-05-07 14:26 35.28972 35.49515 38111 ft 456 kts 296°
2026-05-07 14:26 35.31932 35.42694 38111 ft 455 kts 296°
2026-05-07 14:27 35.34906 35.35815 38111 ft 455 kts 296°
2026-05-07 14:27 35.37855 35.28972 38114 ft 455 kts 295°
2026-05-07 14:28 35.40792 35.22145 38115 ft 455 kts 295°
2026-05-07 14:28 35.43725 35.15308 38117 ft 455 kts 295°
2026-05-07 14:29 35.46674 35.08422 38119 ft 455 kts 295°
2026-05-07 14:29 35.49610 35.01550 38121 ft 455 kts 295°
2026-05-07 14:30 35.52537 34.94684 38127 ft 455 kts 295°
2026-05-07 14:30 35.55485 34.87757 38132 ft 455 kts 295°
2026-05-07 14:31 35.58403 34.80889 38134 ft 455 kts 295°
2026-05-07 14:31 35.61312 34.74022 38134 ft 455 kts 295°
2026-05-07 14:32 35.64237 34.67104 38134 ft 455 kts 295°
2026-05-07 14:32 35.67154 34.60191 38133 ft 455 kts 295°
2026-05-07 14:33 35.70051 34.53309 38134 ft 455 kts 296°
2026-05-07 14:33 35.72959 34.46387 38134 ft 455 kts 296°
2026-05-07 14:34 35.75874 34.39432 38134 ft 454 kts 296°
2026-05-07 14:34 35.78772 34.32502 38134 ft 454 kts 295°
2026-05-07 14:35 35.81666 34.25563 38133 ft 454 kts 295°
2026-05-07 14:35 35.84544 34.18644 38133 ft 454 kts 295°
2026-05-07 14:36 35.87416 34.11717 38133 ft 454 kts 295°
2026-05-07 14:36 35.90274 34.04819 38133 ft 454 kts 295°
2026-05-07 14:37 35.92894 33.97727 38134 ft 453 kts 291°
2026-05-07 14:37 35.96473 33.86881 38135 ft 453 kts 291°
2026-05-07 14:38 35.98824 33.79697 38137 ft 453 kts 291°
2026-05-07 14:38 36.01171 33.72510 38139 ft 453 kts 291°
2026-05-07 14:39 36.03533 33.65255 38140 ft 453 kts 291°
2026-05-07 14:39 36.05879 33.58031 38142 ft 453 kts 291°
2026-05-07 14:40 36.08218 33.50805 38149 ft 453 kts 291°
2026-05-07 14:40 36.10543 33.43603 38158 ft 453 kts 291°
2026-05-07 14:41 36.12870 33.36363 38163 ft 453 kts 291°
2026-05-07 14:41 36.15195 33.29123 38167 ft 453 kts 291°
2026-05-07 14:42 36.17533 33.21886 38170 ft 454 kts 291°
2026-05-07 14:42 36.19878 33.14599 38174 ft 453 kts 291°
2026-05-07 14:43 36.22206 33.07324 38181 ft 453 kts 291°
2026-05-07 14:43 36.24510 33.00094 38187 ft 453 kts 291°
2026-05-07 14:44 36.26811 32.92851 38078 ft 452 kts 291°
2026-05-07 14:44 36.27968 32.89197 37909 ft 452 kts 291°
2026-05-07 14:44 36.29110 32.85589 37656 ft 451 kts 291°
2026-05-07 14:45 36.30254 32.81961 37378 ft 449 kts 291°
2026-05-07 14:45 36.31387 32.78364 37165 ft 449 kts 292°
2026-05-07 14:45 36.32521 32.74765 37009 ft 449 kts 292°
2026-05-07 14:45 36.33652 32.71175 36920 ft 450 kts 292°
2026-05-07 14:46 36.35964 32.63924 36889 ft 451 kts 292°
2026-05-07 14:46 36.38258 32.56701 36891 ft 451 kts 292°
2026-05-07 14:47 36.40548 32.49448 36876 ft 450 kts 292°
2026-05-07 14:47 36.42828 32.42199 36945 ft 451 kts 292°
2026-05-07 14:48 36.45106 32.34932 37217 ft 451 kts 292°
2026-05-07 14:48 36.46238 32.31308 37514 ft 449 kts 292°
2026-05-07 14:48 36.47362 32.27706 37796 ft 447 kts 292°
2026-05-07 14:49 36.48478 32.24125 37986 ft 447 kts 292°
2026-05-07 14:49 36.49595 32.20535 38104 ft 450 kts 292°
2026-05-07 14:49 36.51860 32.13236 38203 ft 453 kts 292°
2026-05-07 14:50 36.54125 32.05930 38205 ft 453 kts 292°
2026-05-07 14:50 36.56383 31.98636 38184 ft 453 kts 292°
2026-05-07 14:51 36.58627 31.91338 38187 ft 453 kts 292°
2026-05-07 14:51 36.60870 31.83999 38194 ft 453 kts 292°
2026-05-07 14:52 36.63095 31.76689 38182 ft 453 kts 292°
2026-05-07 14:52 36.65313 31.69379 38165 ft 453 kts 292°
2026-05-07 14:53 36.67541 31.62017 38161 ft 453 kts 292°
2026-05-07 14:53 36.69853 31.54717 38158 ft 452 kts 294°
2026-05-07 14:54 36.72285 31.47514 38156 ft 452 kts 294°
2026-05-07 14:54 36.74693 31.40285 38154 ft 452 kts 294°
2026-05-07 14:55 36.76897 31.32924 38154 ft 452 kts 291°
2026-05-07 14:55 36.79016 31.25572 38152 ft 453 kts 291°
2026-05-07 14:56 36.81146 31.18143 38150 ft 453 kts 291°
2026-05-07 14:56 36.83261 31.10734 38148 ft 452 kts 291°
2026-05-07 14:57 36.85360 31.03361 38145 ft 452 kts 291°
2026-05-07 14:57 36.87458 30.95962 38142 ft 452 kts 291°
2026-05-07 14:58 36.89540 30.88587 38141 ft 452 kts 291°
2026-05-07 14:58 36.91682 30.81202 38139 ft 451 kts 294°
2026-05-07 14:59 36.94265 30.74068 38142 ft 450 kts 297°
2026-05-07 14:59 36.97020 30.67057 38159 ft 451 kts 298°
2026-05-07 15:00 36.99789 30.60005 38147 ft 451 kts 298°
2026-05-07 15:00 37.01160 30.56504 38043 ft 450 kts 298°
2026-05-07 15:00 37.02535 30.52986 37867 ft 449 kts 298°
2026-05-07 15:01 37.03900 30.49489 37629 ft 448 kts 298°
2026-05-07 15:01 37.05268 30.45979 37414 ft 448 kts 298°
2026-05-07 15:01 37.06624 30.42496 37297 ft 448 kts 298°
2026-05-07 15:01 37.07989 30.38983 37229 ft 448 kts 298°
2026-05-07 15:02 37.10726 30.31930 37159 ft 448 kts 297°
2026-05-07 15:02 37.13431 30.24944 37113 ft 448 kts 297°
2026-05-07 15:03 37.16142 30.17921 37041 ft 448 kts 297°
2026-05-07 15:03 37.18843 30.10898 36937 ft 448 kts 297°
2026-05-07 15:04 37.21541 30.03869 36932 ft 447 kts 297°
2026-05-07 15:04 37.22893 30.00347 37177 ft 446 kts 297°
2026-05-07 15:04 37.24274 29.96879 37511 ft 443 kts 299°
2026-05-07 15:05 37.25684 29.93469 37864 ft 439 kts 299°
2026-05-07 15:05 37.27086 29.90085 38168 ft 438 kts 299°
2026-05-07 15:05 37.28496 29.86665 38311 ft 441 kts 299°
2026-05-07 15:05 37.29910 29.83217 38366 ft 445 kts 299°
2026-05-07 15:06 37.32716 29.76329 38348 ft 445 kts 299°
2026-05-07 15:06 37.35497 29.69424 38319 ft 445 kts 298°
2026-05-07 15:07 37.38196 29.62429 38288 ft 444 kts 297°
2026-05-07 15:07 37.40884 29.55417 38263 ft 445 kts 297°
2026-05-07 15:08 37.43564 29.48410 38260 ft 445 kts 298°
2026-05-07 15:08 37.46251 29.41385 38269 ft 444 kts 297°
2026-05-07 15:09 37.48874 29.34344 38281 ft 444 kts 296°
2026-05-07 15:09 37.51476 29.27288 38288 ft 444 kts 296°
2026-05-07 15:10 37.54067 29.20238 38276 ft 444 kts 296°
2026-05-07 15:10 37.56678 29.13115 38253 ft 444 kts 296°
2026-05-07 15:11 37.59256 29.06066 38230 ft 444 kts 296°
2026-05-07 15:11 37.61832 28.99004 38212 ft 443 kts 296°
2026-05-07 15:12 37.64407 28.91923 38200 ft 442 kts 296°
2026-05-07 15:12 37.66987 28.84806 38189 ft 442 kts 296°
2026-05-07 15:13 37.69530 28.77768 38180 ft 442 kts 296°
2026-05-07 15:13 37.72073 28.70724 38176 ft 441 kts 296°
2026-05-07 15:14 37.74613 28.63649 38122 ft 441 kts 296°
2026-05-07 15:14 37.75865 28.60134 37957 ft 440 kts 296°
2026-05-07 15:14 37.77115 28.56616 37700 ft 439 kts 296°
2026-05-07 15:15 37.78359 28.53106 37354 ft 437 kts 296°
2026-05-07 15:15 37.79598 28.49604 37062 ft 436 kts 296°
2026-05-07 15:15 37.80838 28.46095 36939 ft 438 kts 296°
2026-05-07 15:15 37.82078 28.42581 36920 ft 439 kts 296°
2026-05-07 15:16 37.84412 28.35959 37022 ft 441 kts 296°
2026-05-07 15:16 37.85659 28.32416 37129 ft 443 kts 295°
2026-05-07 15:16 37.86910 28.28856 37233 ft 444 kts 295°
2026-05-07 15:17 37.89419 28.21696 37430 ft 446 kts 294°
2026-05-07 15:17 37.90665 28.18125 37580 ft 446 kts 294°
2026-05-07 15:17 37.91922 28.14517 37730 ft 446 kts 294°
2026-05-07 15:18 37.93178 28.10909 37864 ft 446 kts 294°
2026-05-07 15:18 37.94423 28.07327 37980 ft 446 kts 294°
2026-05-07 15:18 37.96908 28.00163 38149 ft 445 kts 294°
2026-05-07 15:19 37.99386 27.93017 38191 ft 444 kts 294°
2026-05-07 15:19 38.02116 27.85990 38175 ft 444 kts 297°
2026-05-07 15:20 38.04753 27.78951 38153 ft 444 kts 295°
2026-05-07 15:20 38.07265 27.71787 38162 ft 444 kts 294°
2026-05-07 15:21 38.09770 27.64595 38189 ft 444 kts 294°
2026-05-07 15:21 38.12258 27.57427 38192 ft 444 kts 294°
2026-05-07 15:22 38.14731 27.50278 38189 ft 444 kts 294°
2026-05-07 15:22 38.17214 27.43110 38190 ft 444 kts 295°
2026-05-07 15:23 38.19714 27.35919 38184 ft 444 kts 295°
2026-05-07 15:23 38.22206 27.28699 38174 ft 445 kts 294°
2026-05-07 15:24 38.24678 27.21497 38159 ft 445 kts 294°
2026-05-07 15:24 38.27151 27.14286 38154 ft 445 kts 294°
2026-05-07 15:25 38.29976 27.07310 38153 ft 445 kts 301°
2026-05-07 15:25 38.33442 27.00785 38152 ft 446 kts 307°
2026-05-07 15:26 38.37531 26.94767 38143 ft 447 kts 313°
2026-05-07 15:26 38.42107 26.89380 38133 ft 448 kts 317°
2026-05-07 15:27 38.46803 26.84172 38128 ft 449 kts 317°
2026-05-07 15:27 38.51509 26.78960 38128 ft 449 kts 317°
2026-05-07 15:28 38.56219 26.73733 38135 ft 449 kts 317°
2026-05-07 15:28 38.60972 26.68446 38146 ft 449 kts 317°
2026-05-07 15:29 38.65681 26.63198 38156 ft 449 kts 317°
2026-05-07 15:29 38.70369 26.57960 38161 ft 449 kts 317°
2026-05-07 15:30 38.75089 26.52672 38159 ft 449 kts 317°
2026-05-07 15:30 38.79791 26.47393 38158 ft 450 kts 317°
2026-05-07 15:31 38.84513 26.42121 38160 ft 450 kts 318°
2026-05-07 15:31 38.89351 26.37020 38163 ft 451 kts 319°
2026-05-07 15:32 38.94196 26.31919 38167 ft 451 kts 318°
2026-05-07 15:32 38.99026 26.26796 38166 ft 451 kts 318°
2026-05-07 15:33 39.03851 26.21656 38166 ft 452 kts 318°
2026-05-07 15:33 39.08696 26.16480 38168 ft 452 kts 318°
2026-05-07 15:34 39.13542 26.11289 38172 ft 453 kts 318°
2026-05-07 15:34 39.18392 26.06082 38175 ft 453 kts 318°
2026-05-07 15:35 39.23243 26.00857 38179 ft 454 kts 318°
2026-05-07 15:35 39.28090 25.95631 38178 ft 455 kts 318°
2026-05-07 15:36 39.32918 25.90356 38163 ft 455 kts 317°
2026-05-07 15:36 39.37694 25.85043 38155 ft 455 kts 317°
2026-05-07 15:37 39.42492 25.79684 38162 ft 454 kts 317°
2026-05-07 15:37 39.47260 25.74348 38163 ft 455 kts 317°
2026-05-07 15:38 39.52032 25.68997 38157 ft 455 kts 317°
2026-05-07 15:38 39.56812 25.63627 38154 ft 455 kts 317°
2026-05-07 15:39 39.61592 25.58246 38149 ft 455 kts 317°
2026-05-07 15:39 39.66368 25.52858 38145 ft 456 kts 317°
2026-05-07 15:40 39.71173 25.47426 38141 ft 457 kts 317°
2026-05-07 15:40 39.75992 25.41965 38139 ft 456 kts 317°
2026-05-07 15:41 39.80751 25.36553 38135 ft 456 kts 317°
2026-05-07 15:41 39.85517 25.31130 38133 ft 455 kts 316°
2026-05-07 15:42 39.90134 25.25490 38129 ft 454 kts 312°
2026-05-07 15:42 39.94320 25.19289 38127 ft 453 kts 307°
2026-05-07 15:43 39.98035 25.12710 38124 ft 452 kts 304°
2026-05-07 15:43 40.01650 25.06039 38122 ft 451 kts 304°
2026-05-07 15:44 40.05265 24.99347 38135 ft 452 kts 304°
2026-05-07 15:44 40.08873 24.92657 38141 ft 454 kts 304°
2026-05-07 15:45 40.12513 24.85895 38126 ft 456 kts 303°
2026-05-07 15:45 40.16148 24.79126 38119 ft 456 kts 303°
2026-05-07 15:46 40.21605 24.68941 38117 ft 456 kts 303°
2026-05-07 15:47 40.25243 24.62132 38116 ft 455 kts 303°
2026-05-07 15:47 40.28862 24.55342 38114 ft 455 kts 303°
2026-05-07 15:48 40.32500 24.48502 38109 ft 455 kts 303°
2026-05-07 15:48 40.36135 24.41651 38110 ft 455 kts 303°
2026-05-07 15:49 40.39740 24.34842 38113 ft 455 kts 303°
2026-05-07 15:49 40.43343 24.28019 38116 ft 455 kts 303°
2026-05-07 15:50 40.46940 24.21193 38116 ft 455 kts 303°
2026-05-07 15:50 40.50524 24.14372 38117 ft 455 kts 303°
2026-05-07 15:51 40.54125 24.07497 38118 ft 455 kts 303°
2026-05-07 15:51 40.57717 24.00621 38121 ft 455 kts 303°
2026-05-07 15:52 40.61307 23.93762 38118 ft 455 kts 303°
2026-05-07 15:52 40.64911 23.86891 38112 ft 454 kts 303°
2026-05-07 15:53 40.68489 23.80029 38120 ft 453 kts 303°
2026-05-07 15:53 40.72048 23.73174 38133 ft 452 kts 302°
2026-05-07 15:54 40.75587 23.66333 38140 ft 452 kts 302°
2026-05-07 15:54 40.79125 23.59479 38149 ft 452 kts 302°
2026-05-07 15:55 40.82682 23.52571 38157 ft 452 kts 302°
2026-05-07 15:55 40.86204 23.45715 38166 ft 452 kts 302°
2026-05-07 15:56 40.89720 23.38851 38174 ft 451 kts 302°
2026-05-07 15:56 40.93241 23.31949 38176 ft 451 kts 302°
2026-05-07 15:57 40.96743 23.25082 38172 ft 451 kts 302°
2026-05-07 15:57 41.00250 23.18208 38170 ft 451 kts 302°
2026-05-07 15:58 41.03751 23.11341 38168 ft 451 kts 302°
2026-05-07 15:58 41.07613 23.04770 38162 ft 453 kts 308°
2026-05-07 15:59 41.12011 22.98741 38157 ft 456 kts 314°
2026-05-07 15:59 41.16897 22.93349 38152 ft 459 kts 320°
2026-05-07 16:00 41.22190 22.88545 38151 ft 461 kts 322°
2026-05-07 16:00 41.27549 22.83895 38154 ft 461 kts 323°
2026-05-07 16:01 41.33096 22.79565 38162 ft 465 kts 328°
2026-05-07 16:01 41.38970 22.75911 38166 ft 468 kts 333°
2026-05-07 16:02 41.45004 22.72562 38167 ft 470 kts 333°
2026-05-07 16:02 41.51028 22.69237 38172 ft 470 kts 333°
2026-05-07 16:03 41.57067 22.65890 38107 ft 471 kts 333°
2026-05-07 16:03 41.60080 22.64217 37994 ft 471 kts 333°
2026-05-07 16:03 41.63116 22.62528 37819 ft 471 kts 333°
2026-05-07 16:03 41.66133 22.60848 37578 ft 471 kts 333°
2026-05-07 16:04 41.69149 22.59166 37291 ft 470 kts 333°
2026-05-07 16:04 41.72161 22.57484 37092 ft 472 kts 333°
2026-05-07 16:04 41.75184 22.55794 36950 ft 473 kts 333°
2026-05-07 16:05 41.81285 22.52377 36818 ft 477 kts 333°
2026-05-07 16:05 41.87450 22.48917 36808 ft 481 kts 333°
2026-05-07 16:06 41.93643 22.45434 36925 ft 485 kts 333°
2026-05-07 16:06 41.99866 22.41929 37164 ft 487 kts 333°
2026-05-07 16:06 42.02986 22.40168 37309 ft 487 kts 333°
2026-05-07 16:07 42.06134 22.38393 37421 ft 488 kts 333°
2026-05-07 16:07 42.12379 22.34858 37506 ft 487 kts 333°
2026-05-07 16:08 42.18600 22.31329 37428 ft 485 kts 333°
2026-05-07 16:08 42.24796 22.27796 37202 ft 484 kts 332°
2026-05-07 16:08 42.27912 22.26013 37097 ft 484 kts 332°
2026-05-07 16:09 42.31005 22.24246 37009 ft 484 kts 333°
2026-05-07 16:09 42.37283 22.20940 36916 ft 487 kts 335°
2026-05-07 16:10 42.43630 22.17687 36958 ft 489 kts 335°
2026-05-07 16:10 42.46812 22.16043 37152 ft 490 kts 335°
2026-05-07 16:10 42.50010 22.14384 37398 ft 489 kts 334°
2026-05-07 16:10 42.53182 22.12735 37654 ft 488 kts 335°
2026-05-07 16:11 42.56352 22.11074 37889 ft 488 kts 335°
2026-05-07 16:11 42.59521 22.09419 38024 ft 490 kts 334°
2026-05-07 16:11 42.62701 22.07758 38102 ft 489 kts 334°
2026-05-07 16:12 42.69024 22.04428 38180 ft 485 kts 334°
2026-05-07 16:12 42.75346 22.01092 38204 ft 484 kts 334°
2026-05-07 16:13 42.81625 21.97775 38156 ft 483 kts 334°
2026-05-07 16:13 42.87896 21.94454 38105 ft 483 kts 334°
2026-05-07 16:14 42.94169 21.91125 38083 ft 483 kts 334°
2026-05-07 16:14 43.00421 21.87799 38080 ft 483 kts 334°
2026-05-07 16:15 43.06671 21.84467 38089 ft 483 kts 334°
2026-05-07 16:15 43.12932 21.81124 38092 ft 483 kts 334°
2026-05-07 16:16 43.19197 21.77771 38092 ft 483 kts 334°
2026-05-07 16:16 43.25450 21.74415 38090 ft 484 kts 334°
2026-05-07 16:17 43.31722 21.71045 38085 ft 484 kts 335°
2026-05-07 16:17 43.37998 21.67667 38082 ft 484 kts 335°
2026-05-07 16:18 43.44250 21.64293 38080 ft 485 kts 335°
2026-05-07 16:18 43.50501 21.60910 38079 ft 485 kts 335°
2026-05-07 16:19 43.56765 21.57513 38081 ft 485 kts 335°
2026-05-07 16:19 43.63046 21.54100 38083 ft 486 kts 335°
2026-05-07 16:20 43.69318 21.50683 38081 ft 486 kts 335°
2026-05-07 16:20 43.75613 21.47246 38076 ft 486 kts 335°
2026-05-07 16:21 43.81943 21.43782 38074 ft 486 kts 335°
2026-05-07 16:21 43.88229 21.40331 38072 ft 486 kts 335°
2026-05-07 16:22 43.94508 21.36878 38068 ft 487 kts 335°
2026-05-07 16:22 44.00819 21.33400 38060 ft 486 kts 334°
2026-05-07 16:23 44.07114 21.29924 38060 ft 486 kts 334°
2026-05-07 16:23 44.13438 21.26421 38061 ft 488 kts 334°
2026-05-07 16:24 44.19727 21.22930 38052 ft 489 kts 334°
2026-05-07 16:24 44.26056 21.19411 38046 ft 489 kts 334°
2026-05-07 16:25 44.32365 21.15895 38044 ft 489 kts 334°
2026-05-07 16:25 44.38667 21.12374 38042 ft 489 kts 334°
2026-05-07 16:26 44.44973 21.08841 38041 ft 490 kts 334°
2026-05-07 16:26 44.51311 21.05283 38042 ft 490 kts 334°
2026-05-07 16:27 44.57624 21.01731 38043 ft 490 kts 334°
2026-05-07 16:27 44.63936 20.98170 38041 ft 490 kts 334°
2026-05-07 16:28 44.70273 20.94588 38039 ft 491 kts 334°
2026-05-07 16:28 44.76580 20.91014 38036 ft 491 kts 334°
2026-05-07 16:29 44.82903 20.87422 38035 ft 491 kts 334°
2026-05-07 16:29 44.89217 20.83827 38035 ft 491 kts 334°
2026-05-07 16:30 44.95553 20.80216 38034 ft 492 kts 334°
2026-05-07 16:30 45.01871 20.76604 38032 ft 492 kts 334°
2026-05-07 16:31 45.08187 20.72983 38027 ft 492 kts 334°
2026-05-07 16:31 45.14535 20.69334 38021 ft 492 kts 334°
2026-05-07 16:32 45.20875 20.65679 38017 ft 492 kts 334°
2026-05-07 16:32 45.27195 20.62027 38015 ft 492 kts 334°
2026-05-07 16:33 45.33514 20.58368 38014 ft 493 kts 334°
2026-05-07 16:33 45.39856 20.54687 38003 ft 493 kts 334°
2026-05-07 16:33 45.43018 20.52848 37809 ft 492 kts 334°
2026-05-07 16:34 45.46163 20.51018 37522 ft 490 kts 334°
2026-05-07 16:34 45.49272 20.49208 37152 ft 478 kts 334°
2026-05-07 16:34 45.52299 20.47446 36821 ft 468 kts 334°
2026-05-07 16:34 45.55291 20.45696 36475 ft 467 kts 334°
2026-05-07 16:35 45.58303 20.43928 36074 ft 468 kts 334°
2026-05-07 16:35 45.61311 20.42161 35700 ft 469 kts 334°
2026-05-07 16:35 45.64314 20.40396 35301 ft 470 kts 334°
2026-05-07 16:35 45.67326 20.38626 34898 ft 471 kts 334°
2026-05-07 16:36 45.70342 20.36851 34482 ft 472 kts 334°
2026-05-07 16:36 45.73377 20.35064 34066 ft 473 kts 334°
2026-05-07 16:36 45.76421 20.33270 33649 ft 474 kts 334°
2026-05-07 16:36 45.79476 20.31467 33216 ft 474 kts 334°
2026-05-07 16:37 45.82511 20.29675 32771 ft 475 kts 334°
2026-05-07 16:37 45.85559 20.27872 32420 ft 476 kts 334°
2026-05-07 16:37 45.88617 20.26061 32071 ft 477 kts 334°
2026-05-07 16:37 45.91676 20.24247 31734 ft 478 kts 334°
2026-05-07 16:38 45.94739 20.22428 31426 ft 479 kts 334°
2026-05-07 16:38 45.97807 20.20602 31120 ft 480 kts 334°
2026-05-07 16:38 46.00909 20.18753 30812 ft 481 kts 333°
2026-05-07 16:38 46.03988 20.16914 30509 ft 482 kts 333°
2026-05-07 16:39 46.07067 20.15071 30219 ft 483 kts 333°
2026-05-07 16:39 46.10166 20.13216 29997 ft 483 kts 333°
2026-05-07 16:39 46.13263 20.11362 29936 ft 484 kts 333°
2026-05-07 16:39 46.16330 20.09472 29787 ft 478 kts 332°
2026-05-07 16:40 46.19305 20.07409 29182 ft 479 kts 329°
2026-05-07 16:40 46.22309 20.05207 28224 ft 489 kts 329°
2026-05-07 16:40 46.25307 20.02971 27661 ft 485 kts 329°
2026-05-07 16:40 46.28265 20.00762 27123 ft 475 kts 329°
2026-05-07 16:41 46.31167 19.98595 25933 ft 467 kts 329°
2026-05-07 16:41 46.33996 19.96480 24698 ft 458 kts 329°
2026-05-07 16:41 46.36773 19.94405 23440 ft 450 kts 329°
2026-05-07 16:41 46.39499 19.92366 22187 ft 442 kts 329°
2026-05-07 16:42 46.42197 19.90345 20920 ft 434 kts 329°
2026-05-07 16:42 46.44826 19.88372 19681 ft 426 kts 329°
2026-05-07 16:42 46.47409 19.86433 18453 ft 419 kts 329°
2026-05-07 16:42 46.49955 19.84518 17517 ft 413 kts 329°
2026-05-07 16:43 46.52479 19.82616 16930 ft 410 kts 329°
2026-05-07 16:43 46.54988 19.80723 16296 ft 408 kts 329°
2026-05-07 16:43 46.57497 19.78830 15686 ft 406 kts 329°
2026-05-07 16:43 46.60009 19.76933 15065 ft 404 kts 329°
2026-05-07 16:44 46.62475 19.75072 14558 ft 398 kts 329°
2026-05-07 16:44 46.64902 19.73238 14092 ft 393 kts 329°
2026-05-07 16:44 46.67296 19.71423 13641 ft 387 kts 329°
2026-05-07 16:44 46.69656 19.69634 13203 ft 382 kts 329°
2026-05-07 16:45 46.71986 19.67861 12771 ft 378 kts 330°
2026-05-07 16:45 46.74291 19.66112 12340 ft 374 kts 330°
2026-05-07 16:45 46.76589 19.64364 11907 ft 369 kts 330°
2026-05-07 16:45 46.78846 19.62653 11480 ft 366 kts 330°
2026-05-07 16:46 46.81077 19.60950 11054 ft 362 kts 328°
2026-05-07 16:46 46.83136 19.58981 10790 ft 348 kts 320°
2026-05-07 16:46 46.84906 19.56726 10683 ft 331 kts 312°
2026-05-07 16:46 46.86440 19.54349 10570 ft 316 kts 310°
2026-05-07 16:47 46.87875 19.52021 10458 ft 304 kts 309°
2026-05-07 16:47 46.89263 19.49760 10350 ft 292 kts 309°
2026-05-07 16:47 46.90590 19.47608 10252 ft 281 kts 309°
2026-05-07 16:47 46.91880 19.45530 10163 ft 274 kts 310°
2026-05-07 16:48 46.93150 19.43484 10080 ft 271 kts 310°
2026-05-07 16:48 46.94412 19.41457 9928 ft 271 kts 310°
2026-05-07 16:48 46.95677 19.39422 9603 ft 272 kts 310°
2026-05-07 16:48 46.96944 19.37386 9294 ft 272 kts 309°
2026-05-07 16:49 46.98214 19.35339 8992 ft 270 kts 310°
2026-05-07 16:49 46.99471 19.33310 8700 ft 269 kts 309°
2026-05-07 16:49 47.00726 19.31291 8411 ft 269 kts 309°
2026-05-07 16:49 47.01975 19.29282 8124 ft 268 kts 309°
2026-05-07 16:50 47.03221 19.27275 7837 ft 267 kts 309°
2026-05-07 16:50 47.04458 19.25276 7547 ft 266 kts 309°
2026-05-07 16:50 47.05823 19.23461 7215 ft 270 kts 329°
2026-05-07 16:50 47.07640 19.22732 6901 ft 275 kts 358°
2026-05-07 16:51 47.09496 19.23326 6591 ft 279 kts 26°
2026-05-07 16:51 47.11025 19.25018 6354 ft 273 kts 42°
2026-05-07 16:51 47.12389 19.26911 6121 ft 269 kts 43°
2026-05-07 16:51 47.13724 19.28784 5890 ft 265 kts 43°
2026-05-07 16:52 47.15052 19.30606 5655 ft 261 kts 43°
2026-05-07 16:52 47.16366 19.32391 5427 ft 257 kts 42°
2026-05-07 16:52 47.17673 19.34157 5196 ft 253 kts 42°
2026-05-07 16:52 47.18952 19.35880 4979 ft 249 kts 42°
2026-05-07 16:53 47.20212 19.37583 4770 ft 245 kts 41°
2026-05-07 16:53 47.21461 19.39241 4554 ft 242 kts 41°
2026-05-07 16:53 47.22692 19.40884 4377 ft 241 kts 42°
2026-05-07 16:53 47.23921 19.42538 4148 ft 239 kts 42°
2026-05-07 16:54 47.25130 19.44167 3952 ft 235 kts 42°
2026-05-07 16:54 47.26328 19.45785 3754 ft 231 kts 42°
2026-05-07 16:54 47.27501 19.47359 3569 ft 227 kts 41°
2026-05-07 16:54 47.28851 19.48466 3283 ft 224 kts
2026-05-07 16:55 47.30349 19.48290 3044 ft 216 kts 335°
2026-05-07 16:55 47.31520 19.47038 3025 ft 202 kts 311°
2026-05-07 16:55 47.32419 19.45572 3009 ft 186 kts 306°
2026-05-07 16:55 47.33231 19.44152 2993 ft 176 kts 305°
2026-05-07 16:56 47.34011 19.42826 2816 ft 167 kts 305°
2026-05-07 16:56 47.34763 19.41576 2587 ft 160 kts 306°
2026-05-07 16:56 47.36228 19.39193 2177 ft 157 kts 306°
2026-05-07 16:57 47.36957 19.38012 1975 ft 156 kts 306°
2026-05-07 16:57 47.37681 19.36835 1770 ft 155 kts 307°
2026-05-07 16:57 47.38404 19.35666 1563 ft 155 kts 307°
2026-05-07 16:57 47.39131 19.34495 1353 ft 154 kts 308°
2026-05-07 16:58 47.39849 19.33336 1145 ft 153 kts 309°
2026-05-07 16:58 47.40561 19.32184 939 ft 152 kts 310°
2026-05-07 16:58 47.41266 19.31036 735 ft 151 kts 311°
2026-05-07 16:58 47.41969 19.29899 548 ft 150 kts 312°
2026-05-07 16:59 47.42669 19.28779 431 ft 145 kts 312°
2026-05-07 16:59 47.43241 19.27857 449 ft 92 kts 312°
2026-05-07 16:59 47.43563 19.27339 466 ft 59 kts 312°
2026-05-07 16:59 47.43728 19.26998 475 ft 22 kts 284°
2026-05-07 17:00 47.43755 19.26820 480 ft 17 kts 282°
2026-05-07 17:00 47.43780 19.26650 483 ft 17 kts 282°
2026-05-07 17:00 47.43802 19.26494 484 ft 7 kts 281°
2026-05-07 17:00 47.43816 19.26414 485 ft 9 kts 288°
2026-05-07 17:01 47.43848 19.26323 487 ft 11 kts 306°
2026-05-07 17:01 47.43902 19.26227 487 ft 10 kts 303°
2026-05-07 17:01 47.43891 19.26127 487 ft 12 kts 230°
2026-05-07 17:01 47.43821 19.26028 486 ft 16 kts 222°
2026-05-07 17:02 47.43730 19.25906 485 ft 19 kts 222°
2026-05-07 17:02 47.43623 19.25762 483 ft 22 kts 223°
2026-05-07 17:02 47.43496 19.25591 477 ft 25 kts 222°
2026-05-07 17:02 47.43402 19.25465 475 ft 10 kts 222°
2026-05-07 17:03 47.43341 19.25433 473 ft 11 kts 154°
2026-05-07 17:03 47.43279 19.25534 472 ft 16 kts 129°
2026-05-07 17:03 47.43204 19.25655 472 ft 14 kts 132°
2026-05-07 17:03 47.43149 19.25744 472 ft 8 kts 132°
2026-05-07 17:04 47.43137 19.25782 472 ft 3 kts 71°
2026-05-07 17:04 47.43158 19.25827 473 ft 6 kts 47°
2026-05-07 17:04 47.43174 19.25850 474 ft 2 kts 43°
2026-05-07 17:04 47.43177 19.25854 474 ft 0 kts 43°